Retour au catalogue

COSMOS 397 DEB

ActifLEO
NORAD 5014·DEBRIS·🇷🇺 Russia

Lancé Feb 25, 1971 depuis Baikonur Cosmodrome

Loading…

Prochains Passages

TLE

Source: Space-Track
1 05014U 71015H   26218.97769118  .00000925  00000-0  24337-3 0  9999
2 05014  65.5766 191.2593 0569930 237.2401 117.2526 13.86398599683550

Suivez COSMOS 397 DEB en temps réel avec AllMySat

Download on the App Store